OPS 4682 DEB, 38414

Orbit data source: Space-Track

OPS 4682 DEB, 38414 is space debris in LEO originally from a launch on Sat, 03 Apr 1965 UTC launched from the Air Force Western Test Range (AFWTR). Debris objects in space refer to the collection of defunct objects orbiting the Earth. Examples of debris include non-operational satellites, rocket bodies, and fragments generated from explosions, collisions, or faulty payload assembly.

Loading next visibility...
Identifier
38414, 1965-027DT
Orbit
LEO
Country
Flag of USUS
Related business
Manufacturer
Unknown
Mission
Spacecraft
Bus & Motor
Unknown
Mass
Unknown
Launch date (UTC)
1965-04-03 (61 years ago)
Launch vehicle
Unknown
Launch site
Air Force Western Test Range (AFWTR)
Object type
Payload
Rocket body
Debris
Shape & HBR
Unknown shape, 0.1 m
Radar Cross Section
Medium (>0.1 m² and <1 m²)

Expand to show TLE details & history
Last TLE update: 2 weeks ago

TLE from 2 weeks ago
0 OPS 4682 DEB
1 38414U 65027DT  26251.04220521  .00000724  00000-0  24402-2 0  9999
2 38414  90.2373 354.1592 0038478 246.7195 112.9874 12.98118567151556
Epoch: 2026-09-08T01:00Z
TLE epoch observation values (Epoch: 2026-09-08T01:00:46.530Z)
Latitude
0.00002°
Longitude
-8.14898°
Altitude
1,283.938 km
Speed
7.209 km/s
True Right ascension
23h 36m 38s
True Declination
0° 00' 00"
Sunlit
Object was in full shadow at epoch
Visualization orbit readout
Latitude
Unknown
Longitude
Unknown
Altitude
Unknown
Speed
Unknown
Apparent Right ascension
Unknown
Apparent Declination
Unknown
Sunlit
N/A
Visualization observer readout
Local Sidereal Time
10:57:29
Azimuth
Unknown
Elevation
Unknown
Doppler factor
Unknown
Orbital elements
Apogee altitude
1,296.012 km
Perigee altitude
1,237.181 km
Semi-major axis
7,644.734 km
Eccentricity
0.00385
Inclination
90.2373°
RAAN
354.1592°
Arg. of periapsis
246.7195°
True anomaly
113.39255°
Mean anomaly
112.9874°
Eccentric anomaly
113.19005°
Mean motion
3.24713 °/min
Orbital period
110.87 mins
BSTAR
0.0024402
Loading maneuver chart data...
Computing Atmospheric mass density...
Loading historical data...
Loading historical data...
Loading historical data...
Loading historical data...
Loading historical data...
Loading historical data...
Loading historical data...

Documentation

Showing up to 5 results
|